Location: Albany
(35.0170°S, 117.8920°E)
Time: 20:44:19
(UTC+08:00)

A-11 Canister half - Pass Details

Date: 27 January 2021
Orbit: 1525 x 1684 km, 47.3° (Epoch: 03 March)

Event Time Altitude Azimuth Distance (km) Brightness Sun altitude
Rises 22:10:21 0° 14° (NNE) 4,907 - -28.3°
Reaches altitude 10° 22:17:17 10° 47° (NE) 3,944 - -29.1°
Maximum altitude 22:19:30 11° 60° (ENE) 3,876 - -29.4°
Drops below altitude 10° 22:21:44 10° 73° (ENE) 3,951 - -29.6°
Exits shadow 22:26:53 - 98° (E) 4,606 11.3 -30.2°
Sets 22:28:37 0° 105° (ESE) 4,936 11.5 -30.4°
